.
WxDataArchive / Data Records for 2010-08-28
2010-08-27 August 2010 2010-08-29

Data Records for Saturday, 28 August 2010

Time	Temp	Chill	HIndex	Humid	Dewpt	 Wind 	HiWind	WindDir	Rain 	Barom 
-----	----	-----	------	-----	-----	------	------	-------	-----	----- 
00:00	61.3	61.3	61.3	79	54.7	0	0	---	0.00	30.134 
00:05	61.2	61.2	61.2	80	55.0	0	0	---	0.00	30.134 
00:10	61.0	61.0	61.0	80	54.8	0	0	---	0.00	30.134 
00:15	60.9	60.9	60.9	81	55.0	0	0	---	0.00	30.135 
00:20	60.7	60.7	60.7	81	54.8	0	0	---	0.00	30.135 
00:25	60.5	60.5	60.5	81	54.6	0	0	---	0.00	30.135 
00:30	60.5	60.5	60.5	82	55.0	0	0	---	0.00	30.140 
00:35	60.4	60.4	60.4	82	54.9	0	0	---	0.00	30.140 
00:40	60.2	60.2	60.2	82	54.7	0	0	---	0.00	30.140 
00:45	60.1	60.1	60.1	82	54.6	0	0	---	0.00	30.144 
00:50	59.9	59.9	59.9	83	54.7	0	0	---	0.00	30.144 
00:55	59.8	59.8	59.8	83	54.6	0	0	---	0.00	30.144 
01:00	59.6	59.6	59.6	84	54.8	0	0	---	0.00	30.146 
01:05	59.6	59.6	59.6	84	54.8	0	0	---	0.00	30.146 
01:10	59.5	59.5	59.5	84	54.7	0	0	---	0.00	30.146 
01:15	59.3	59.3	59.3	84	54.5	0	0	---	0.00	30.145 
01:20	59.2	59.2	59.2	85	54.7	0	0	---	0.00	30.145 
01:25	59.0	59.0	59.0	85	54.5	0	0	---	0.00	30.145 
01:30	58.9	58.9	58.9	86	54.7	0	0	---	0.00	30.147 
01:35	58.9	58.9	58.9	86	54.7	0	0	---	0.00	30.147 
01:40	58.7	58.7	58.7	86	54.5	0	0	---	0.00	30.147 
01:45	58.7	58.7	58.7	87	54.8	0	0	---	0.00	30.145 
01:50	58.6	58.6	58.6	87	54.7	0	0	---	0.00	30.145 
01:55	58.4	58.4	58.4	87	54.5	0	0	---	0.00	30.145 
02:00	58.3	58.3	58.3	87	54.4	0	0	---	0.00	30.149 
02:05	58.3	58.3	58.3	88	54.8	0	0	---	0.00	30.149 
02:10	58.1	58.1	58.1	88	54.6	0	0	---	0.00	30.149 
02:15	58.0	58.0	58.0	88	54.5	0	0	---	0.00	30.145 
02:20	57.8	57.8	57.8	88	54.3	0	0	---	0.00	30.145 
02:25	57.6	57.6	57.6	88	54.1	0	0	---	0.00	30.145 
02:30	57.5	57.5	57.5	88	54.0	0	0	---	0.00	30.144 
02:35	57.5	57.5	57.5	88	54.0	0	0	---	0.00	30.144 
02:40	57.3	57.3	57.3	88	53.8	0	0	---	0.00	30.144 
02:45	57.2	57.2	57.2	89	54.0	0	0	---	0.00	30.145 
02:50	57.0	57.0	57.0	89	53.8	0	0	---	0.00	30.145 
02:55	57.0	57.0	57.0	89	53.8	0	0	---	0.00	30.145 
03:00	56.9	56.9	56.9	89	53.7	0	0	---	0.00	30.146 
03:05	56.7	56.7	56.7	89	53.5	0	0	---	0.00	30.146 
03:10	56.7	56.7	56.7	89	53.5	0	0	---	0.00	30.146 
03:15	56.6	56.6	56.6	90	53.7	0	0	---	0.00	30.144 
03:20	56.5	56.5	56.5	90	53.6	0	0	---	0.00	30.144 
03:25	56.5	56.5	56.5	90	53.6	0	0	---	0.00	30.144 
03:30	56.3	56.3	56.3	90	53.4	0	0	---	0.00	30.145 
03:35	56.2	56.2	56.2	90	53.3	0	0	---	0.00	30.145 
03:40	56.2	56.2	56.2	90	53.3	0	0	---	0.00	30.145 
03:45	56.0	56.0	56.0	90	53.1	0	0	---	0.00	30.146 
03:50	55.9	55.9	55.9	91	53.3	0	0	---	0.00	30.146 
03:55	55.9	55.9	55.9	91	53.3	0	0	---	0.00	30.146 
04:00	55.7	55.7	55.7	91	53.1	0	0	---	0.00	30.146 
04:05	55.6	55.6	55.6	91	53.0	0	0	---	0.00	30.146 
04:10	55.6	55.6	55.6	91	53.0	0	0	---	0.00	30.146 
04:15	55.4	55.4	55.4	91	52.8	0	0	---	0.00	30.148 
04:20	55.4	55.4	55.4	92	53.1	0	0	---	0.00	30.148 
04:25	55.4	55.4	55.4	92	53.1	0	0	---	0.00	30.148 
04:30	55.3	55.3	55.3	92	53.0	0	0	---	0.00	30.147 
04:35	55.3	55.3	55.3	92	53.0	0	0	---	0.00	30.147 
04:40	55.1	55.1	55.1	92	52.8	0	0	---	0.00	30.147 
04:45	55.1	55.1	55.1	92	52.8	0	0	---	0.00	30.149 
04:50	55.0	55.0	55.0	92	52.7	0	0	---	0.00	30.149 
04:55	55.0	55.0	55.0	92	52.7	0	0	---	0.00	30.149 
05:00	55.0	55.0	55.0	93	53.0	0	0	---	0.00	30.152 
05:05	54.8	54.8	54.8	93	52.8	0	0	---	0.00	30.152 
05:10	54.7	54.7	54.7	93	52.7	0	0	---	0.00	30.152 
05:15	54.7	54.7	54.7	93	52.7	0	0	---	0.00	30.160 
05:20	54.5	54.5	54.5	93	52.5	0	0	---	0.00	30.160 
05:25	54.4	54.4	54.4	93	52.4	0	0	---	0.00	30.160 
05:30	54.2	54.2	54.2	93	52.2	0	0	---	0.00	30.163 
05:35	54.1	54.1	54.1	93	52.1	0	0	---	0.00	30.163 
05:40	54.1	54.1	54.1	93	52.1	0	0	---	0.00	30.163 
05:45	53.9	53.9	53.9	93	51.9	0	0	---	0.00	30.164 
05:50	53.9	53.9	53.9	93	51.9	0	0	---	0.00	30.164 
05:55	53.8	53.8	53.8	93	51.8	0	0	---	0.00	30.164 
06:00	53.6	53.6	53.6	93	51.6	0	0	---	0.00	30.168 
06:05	53.6	53.6	53.6	94	51.9	0	0	---	0.00	30.168 
06:10	53.6	53.6	53.6	94	51.9	0	0	---	0.00	30.168 
06:15	53.5	53.5	53.5	94	51.8	0	0	---	0.00	30.170 
06:20	53.5	53.5	53.5	94	51.8	0	0	---	0.00	30.170 
06:25	53.5	53.5	53.5	94	51.8	0	0	---	0.00	30.170 
06:30	53.3	53.3	53.3	94	51.6	0	0	---	0.00	30.171 
06:35	53.3	53.3	53.3	94	51.6	0	0	---	0.00	30.171 
06:40	53.2	53.2	53.2	94	51.5	0	0	---	0.00	30.171 
06:45	53.2	53.2	53.2	94	51.5	0	0	---	0.00	30.178 
06:50	53.2	53.2	53.2	94	51.5	0	0	---	0.00	30.178 
06:55	53.1	53.1	53.1	94	51.4	0	0	---	0.00	30.178 
07:00	52.9	52.9	52.9	94	51.2	0	0	---	0.00	30.182 
07:05	52.9	52.9	52.9	94	51.2	0	0	---	0.00	30.182 
07:10	52.9	52.9	52.9	94	51.2	0	0	---	0.00	30.182 
07:15	52.9	52.9	52.9	94	51.2	0	0	---	0.00	30.186 
07:20	53.1	53.1	53.1	95	51.7	0	0	---	0.00	30.186 
07:25	53.1	53.1	53.1	95	51.7	0	0	---	0.00	30.186 
07:30	53.1	53.1	53.1	95	51.7	0	0	---	0.00	30.187 
07:35	53.1	53.1	53.1	95	51.7	0	0	---	0.00	30.187 
07:40	53.2	53.2	53.2	95	51.8	0	0	---	0.00	30.187 
07:45	53.3	53.3	53.3	95	51.9	0	0	---	0.00	30.190 
07:50	53.5	53.5	53.5	95	52.1	0	0	---	0.00	30.190 
07:55	53.9	53.9	53.9	95	52.5	0	0	---	0.00	30.190 
08:00	54.4	54.4	54.4	95	53.0	0	0	---	0.00	30.189 
08:05	55.1	55.1	55.1	96	54.0	0	0	---	0.00	30.189 
08:10	56.0	56.0	56.0	95	54.6	0	1	292	0.00	30.189 
08:15	56.7	56.7	56.7	94	55.0	0	1	292	0.00	30.199 
08:20	57.6	57.6	57.6	91	55.0	0	1	292	0.00	30.199 
08:25	58.7	58.7	58.7	90	55.8	0	1	292	0.00	30.199 
08:30	59.6	59.6	59.6	85	55.1	0	1	292	0.00	30.199 
08:35	60.2	60.2	60.2	83	55.0	0	1	292	0.00	30.199 
08:40	60.9	60.9	60.9	80	54.7	0	1	292	0.00	30.199 
08:45	61.3	61.3	61.3	79	54.7	0	1	292	0.00	30.197 
08:50	61.6	61.6	61.6	78	54.7	0	1	292	0.00	30.197 
08:55	62.1	62.1	62.1	76	54.4	0	1	292	0.00	30.197 
09:00	62.4	62.4	62.4	74	54.0	0	1	292	0.00	30.197 
09:05	62.7	62.7	62.7	74	54.3	0	2	292	0.00	30.197 
09:10	62.9	62.9	62.9	74	54.5	0	2	315	0.00	30.197 
09:15	63.2	63.2	63.2	72	54.0	1	3	0	0.00	30.200 
09:20	63.5	63.5	63.5	71	53.9	0	2	0	0.00	30.200 
09:25	64.2	64.2	64.2	70	54.2	0	1	0	0.00	30.200 
09:30	64.8	64.8	64.8	69	54.4	0	1	0	0.00	30.200 
09:35	65.5	65.5	65.5	69	55.1	0	1	0	0.00	30.200 
09:40	66.1	66.1	66.1	67	54.8	0	3	0	0.00	30.200 
09:45	66.6	66.6	66.6	65	54.5	0	3	22	0.00	30.202 
09:50	67.3	67.3	67.3	65	55.1	0	1	135	0.00	30.202 
09:55	67.8	67.8	67.8	63	54.7	0	2	135	0.00	30.202 
10:00	68.3	68.3	68.3	63	55.2	0	3	135	0.00	30.202 
10:05	68.8	68.8	68.8	62	55.2	0	2	135	0.00	30.202 
10:10	69.8	69.8	69.8	60	55.3	1	4	90	0.00	30.202 
10:15	70.6	70.6	70.6	58	55.1	1	2	90	0.00	30.202 
10:20	71.5	71.5	71.5	57	55.5	1	2	90	0.00	30.202 
10:25	72.3	72.3	72.3	56	55.7	0	3	90	0.00	30.202 
10:30	73.2	73.2	73.2	54	55.5	1	3	90	0.00	30.203 
10:35	74.0	74.0	74.0	52	55.2	0	2	90	0.00	30.203 
10:40	75.1	75.1	77.7	51	55.7	0	2	90	0.00	30.203 
10:45	75.8	75.8	78.0	50	55.8	0	2	90	0.00	30.202 
10:50	76.5	76.5	78.3	49	55.9	1	5	90	0.00	30.202 
10:55	76.0	76.0	78.1	50	56.0	2	4	90	0.00	30.202 
11:00	76.0	76.0	78.1	50	56.0	0	2	90	0.00	30.196 
11:05	76.3	76.3	78.2	48	55.1	2	5	90	0.00	30.196 
11:10	76.7	76.7	78.3	46	54.3	1	3	68	0.00	30.196 
11:15	77.4	77.4	78.6	45	54.4	1	3	68	0.00	30.196 
11:20	78.1	78.1	78.9	43	53.8	1	3	90	0.00	30.196 
11:25	78.6	78.6	79.1	41	52.9	1	4	112	0.00	30.196 
11:30	79.0	79.0	79.4	42	53.9	1	4	112	0.00	30.192 
11:35	78.8	78.8	79.2	41	53.1	2	5	90	0.00	30.192 
11:40	79.2	79.2	79.4	40	52.8	1	4	45	0.00	30.192 
11:45	79.6	79.6	79.7	40	53.1	1	3	112	0.00	30.191 
11:50	80.5	80.5	80.1	38	52.5	0	2	135	0.00	30.191 
11:55	80.9	80.9	80.4	38	52.9	0	3	112	0.00	30.191 
12:00	81.1	81.1	80.5	38	53.1	2	5	90	0.00	30.187 
12:05	81.1	81.1	80.3	35	50.8	1	4	90	0.00	30.187 
12:10	81.6	81.6	80.7	36	52.0	0	4	135	0.00	30.187 
12:15	81.2	81.2	80.3	35	50.9	3	6	90	0.00	30.187 
12:20	80.9	80.9	80.2	36	51.4	2	5	90	0.00	30.187 
12:25	81.2	81.2	80.4	36	51.7	1	2	68	0.00	30.187 
12:30	82.0	82.0	80.8	34	50.8	2	5	68	0.00	30.177 
12:35	81.8	81.8	80.9	36	52.2	2	6	90	0.00	30.177 
12:40	81.8	81.8	80.6	33	49.9	1	3	112	0.00	30.177 
12:45	82.0	82.0	80.7	33	50.0	3	8	112	0.00	30.175 
12:50	81.6	81.6	80.6	35	51.3	2	7	90	0.00	30.175 
12:55	81.6	81.6	80.5	34	50.5	2	5	90	0.00	30.175 
13:00	82.4	82.4	81.1	34	51.2	1	3	135	0.00	30.168 
13:05	82.8	82.8	81.2	31	49.0	3	6	90	0.00	30.168 
13:10	82.2	82.2	80.7	31	48.5	3	7	90	0.00	30.168 
13:15	81.6	81.6	80.4	32	48.9	3	7	90	0.00	30.166 
13:20	81.6	81.6	80.5	34	50.5	4	9	90	0.00	30.166 
13:25	82.4	82.4	80.9	32	49.5	1	4	90	0.00	30.166 
13:30	83.2	83.2	81.5	31	49.4	2	7	90	0.00	30.162 
13:35	83.4	83.4	81.6	31	49.6	2	4	90	0.00	30.162 
13:40	83.4	83.4	81.6	31	49.6	2	6	90	0.00	30.162 
13:45	83.4	83.4	81.6	31	49.6	1	5	90	0.00	30.160 
13:50	83.8	83.8	81.7	29	48.1	1	5	135	0.00	30.160 
13:55	84.1	84.1	82.1	30	49.3	1	3	90	0.00	30.160 
14:00	84.7	84.7	82.6	30	49.8	1	3	135	0.00	30.150 
14:05	85.3	85.3	83.0	29	49.4	1	5	112	0.00	30.150 
14:10	85.5	85.5	83.1	28	48.6	1	3	68	0.00	30.150 
14:15	85.1	85.1	82.9	30	50.1	2	7	112	0.00	30.147 
14:20	85.5	85.5	83.4	31	51.4	0	2	135	0.00	30.147 
14:25	85.9	85.9	83.7	30	50.8	1	5	68	0.00	30.147 
14:30	85.9	85.9	83.7	30	50.8	2	5	112	0.00	30.144 
14:35	85.7	85.7	83.4	29	49.7	2	6	112	0.00	30.144 
14:40	85.3	85.3	82.8	27	47.5	3	7	90	0.00	30.144 
14:45	85.3	85.3	82.9	28	48.5	2	6	90	0.00	30.141 
14:50	85.3	85.3	83.2	31	51.2	1	3	68	0.00	30.141 
14:55	85.3	85.3	83.0	29	49.4	2	6	90	0.00	30.141 
15:00	85.3	85.3	83.0	29	49.4	2	5	90	0.00	30.132 
15:05	85.1	85.1	82.8	29	49.2	2	7	112	0.00	30.132 
15:10	85.5	85.5	83.3	30	50.5	1	4	90	0.00	30.132 
15:15	85.3	85.3	83.1	30	50.3	3	6	90	0.00	30.129 
15:20	85.7	85.7	83.6	31	51.5	2	5	90	0.00	30.129 
15:25	85.7	85.7	83.5	30	50.7	2	6	90	0.00	30.129 
15:30	85.9	85.9	83.7	30	50.8	1	5	90	0.00	30.125 
15:35	85.9	85.9	83.8	31	51.7	2	4	90	0.00	30.125 
15:40	86.1	86.1	84.0	31	51.9	1	4	90	0.00	30.125 
15:45	86.1	86.1	83.7	29	50.1	2	4	90	0.00	30.120 
15:50	86.3	86.3	83.8	28	49.3	2	6	90	0.00	30.120 
15:55	86.1	86.1	83.8	30	51.0	1	3	112	0.00	30.120 
16:00	86.3	86.3	84.0	30	51.2	1	4	90	0.00	30.115 
16:05	86.3	86.3	84.2	31	52.1	1	4	112	0.00	30.115 
16:10	87.0	87.0	84.4	28	49.9	1	3	135	0.00	30.115 
16:15	87.2	87.2	84.5	27	49.1	1	4	270	0.00	30.113 
16:20	87.4	87.4	84.7	27	49.3	1	3	270	0.00	30.113 
16:25	87.6	87.6	85.0	28	50.4	1	4	112	0.00	30.113 
16:30	87.6	87.6	84.9	27	49.4	1	4	112	0.00	30.111 
16:35	87.4	87.4	84.7	27	49.3	1	3	135	0.00	30.111 
16:40	87.2	87.2	84.5	27	49.1	1	8	90	0.00	30.111 
16:45	87.0	87.0	84.4	28	49.9	1	3	90	0.00	30.109 
16:50	87.0	87.0	84.4	28	49.9	2	4	68	0.00	30.109 
16:55	87.0	87.0	84.4	28	49.9	1	3	90	0.00	30.109 
17:00	86.7	86.7	84.0	27	48.7	1	3	112	0.00	30.103 
17:05	86.7	86.7	84.1	28	49.7	1	3	68	0.00	30.103 
17:10	86.5	86.5	84.0	28	49.5	2	4	112	0.00	30.103 
17:15	86.5	86.5	84.2	30	51.3	1	7	90	0.00	30.100 
17:20	86.3	86.3	84.0	30	51.2	2	4	112	0.00	30.100 
17:25	85.9	85.9	83.8	31	51.7	1	4	112	0.00	30.100 
17:30	85.9	85.9	83.5	29	49.9	2	4	68	0.00	30.098 
17:35	85.7	85.7	83.5	30	50.7	1	5	90	0.00	30.098 
17:40	85.7	85.7	83.4	29	49.7	1	5	90	0.00	30.098 
17:45	85.5	85.5	83.2	29	49.6	2	4	90	0.00	30.096 
17:50	85.5	85.5	83.4	31	51.4	1	3	135	0.00	30.096 
17:55	85.5	85.5	83.2	29	49.6	2	6	135	0.00	30.096 
18:00	85.3	85.3	83.1	30	50.3	1	4	112	0.00	30.095 
18:05	85.1	85.1	82.9	30	50.1	2	5	90	0.00	30.095 
18:10	84.9	84.9	82.9	31	50.9	2	5	90	0.00	30.095 
18:15	84.9	84.9	82.9	31	50.9	2	4	112	0.00	30.088 
18:20	84.7	84.7	82.7	31	50.7	1	3	112	0.00	30.088 
18:25	84.7	84.7	82.7	31	50.7	1	5	112	0.00	30.088 
18:30	84.5	84.5	82.6	32	51.4	1	3	90	0.00	30.089 
18:35	84.3	84.3	82.5	32	51.2	1	4	135	0.00	30.089 
18:40	84.1	84.1	82.4	33	51.9	1	3	112	0.00	30.089 
18:45	84.1	84.1	82.4	33	51.9	1	3	135	0.00	30.093 
18:50	84.0	84.0	82.5	34	52.6	1	4	112	0.00	30.093 
18:55	83.8	83.8	82.3	34	52.4	0	3	112	0.00	30.093 
19:00	83.8	83.8	82.4	35	53.2	0	2	135	0.00	30.088 
19:05	83.6	83.6	82.2	35	53.0	0	2	158	0.00	30.088 
19:10	83.4	83.4	82.1	35	52.8	0	2	135	0.00	30.088 
19:15	83.2	83.2	82.0	36	53.4	0	2	112	0.00	30.086 
19:20	83.0	83.0	82.0	37	54.0	1	2	112	0.00	30.086 
19:25	82.8	82.8	81.8	37	53.8	0	2	112	0.00	30.086 
19:30	82.4	82.4	81.6	38	54.2	0	1	112	0.00	30.087 
19:35	82.2	82.2	81.5	39	54.7	0	2	112	0.00	30.087 
19:40	82.0	82.0	81.3	39	54.6	0	2	112	0.00	30.087 
19:45	81.6	81.6	81.1	40	54.9	0	1	112	0.00	30.087 
19:50	81.2	81.2	80.9	41	55.2	0	1	112	0.00	30.087 
19:55	80.9	80.9	80.7	41	55.0	0	1	112	0.00	30.087 
20:00	80.7	80.7	80.6	42	55.4	0	0	---	0.00	30.089 
20:05	80.3	80.3	80.4	43	55.7	0	0	---	0.00	30.089 
20:10	79.8	79.8	80.1	44	55.9	0	0	---	0.00	30.089 
20:15	79.2	79.2	79.8	45	56.0	0	0	---	0.00	30.084 
20:20	78.6	78.6	79.4	46	56.1	0	0	---	0.00	30.084 
20:25	77.9	77.9	79.1	48	56.6	0	0	---	0.00	30.084 
20:30	77.4	77.4	78.8	48	56.1	0	0	---	0.00	30.086 
20:35	76.7	76.7	78.4	49	56.1	0	0	---	0.00	30.086 
20:40	76.1	76.1	78.1	50	56.1	0	0	---	0.00	30.086 
20:45	75.6	75.6	77.9	51	56.2	0	0	---	0.00	30.091 
20:50	75.1	75.1	77.6	52	56.3	0	0	---	0.00	30.091 
20:55	74.4	74.4	74.4	53	56.1	0	0	---	0.00	30.091 
21:00	73.9	73.9	73.9	54	56.2	0	0	---	0.00	30.098 
21:05	73.3	73.3	73.3	55	56.1	0	0	---	0.00	30.098 
21:10	72.8	72.8	72.8	56	56.2	0	0	---	0.00	30.098 
21:15	72.5	72.5	72.5	58	56.9	0	0	---	0.00	30.094 
21:20	72.0	72.0	72.0	59	56.9	0	0	---	0.00	30.094 
21:25	71.5	71.5	71.5	59	56.4	0	0	---	0.00	30.094 
21:30	71.1	71.1	71.1	60	56.5	0	0	---	0.00	30.099 
21:35	70.8	70.8	70.8	60	56.2	0	0	---	0.00	30.099 
21:40	70.4	70.4	70.4	61	56.3	0	0	---	0.00	30.099 
21:45	70.1	70.1	70.1	62	56.5	0	0	---	0.00	30.100 
21:50	69.8	69.8	69.8	62	56.2	0	0	---	0.00	30.100 
21:55	69.4	69.4	69.4	63	56.2	0	0	---	0.00	30.100 
22:00	69.1	69.1	69.1	64	56.4	0	0	---	0.00	30.106 
22:05	68.8	68.8	68.8	65	56.5	0	0	---	0.00	30.106 
22:10	68.4	68.4	68.4	65	56.2	0	0	---	0.00	30.106 
22:15	68.1	68.1	68.1	66	56.3	0	0	---	0.00	30.105 
22:20	67.9	67.9	67.9	67	56.5	0	0	---	0.00	30.105 
22:25	67.6	67.6	67.6	68	56.7	0	0	---	0.00	30.105 
22:30	67.4	67.4	67.4	68	56.5	0	0	---	0.00	30.110 
22:35	67.3	67.3	67.3	68	56.4	0	0	---	0.00	30.110 
22:40	67.1	67.1	67.1	69	56.6	0	0	---	0.00	30.110 
22:45	66.9	66.9	66.9	69	56.4	0	0	---	0.00	30.112 
22:50	66.8	66.8	66.8	69	56.3	0	1	112	0.00	30.112 
22:55	66.8	66.8	66.8	69	56.3	0	0	---	0.00	30.112 
23:00	66.8	66.8	66.8	69	56.3	0	0	---	0.00	30.112 
23:05	66.6	66.6	66.6	69	56.1	0	0	---	0.00	30.112 
23:10	66.6	66.6	66.6	69	56.1	0	0	---	0.00	30.112 
23:15	66.4	66.4	66.4	70	56.3	0	0	---	0.00	30.111 
23:20	66.3	66.3	66.3	70	56.2	0	0	---	0.00	30.111 
23:25	66.1	66.1	66.1	70	56.0	0	0	---	0.00	30.111 
23:30	66.0	66.0	66.0	70	55.9	0	0	---	0.00	30.111 
23:35	65.8	65.8	65.8	71	56.1	0	0	---	0.00	30.111 
23:40	65.6	65.6	65.6	71	55.9	0	0	---	0.00	30.111 
23:45	65.5	65.5	65.5	72	56.2	0	0	---	0.00	30.112 
23:50	65.3	65.3	65.3	72	56.0	0	0	---	0.00	30.112 
23:55	65.2	65.2	65.2	72	55.9	0	0	---	0.00	30.112 

CoCoRaHS
IN-AL-39
A2 Web Hosting
Creative Commons License
GoDaddy
search engine by freefind advanced

loaded 2018-11-13 17:06:36 • last modified 2010-11-18 10:43:29
Privacy PolicyDisclaimer
• wx.awcolley.com is powered by PmWiki v.2002016 •
• all content (unless otherwise noted) © 2018 A W Colley